Location: Franzen
(48.6167°N, 15.3833°E)
Time: 14:04:26
(UTC+00:00)

USA 229 - Pass Details

Date: 22 April 2021
Orbit: 958 x 1254 km, 63.4° (Epoch: 23 April)

Event Time Altitude Azimuth Distance (km) Brightness Sun altitude
Rises 20:26:07 0° 317° (NW) 3,924 8.3 -20.4°
Reaches altitude 10° 20:28:45 10° 321° (NW) 3,006 7.3 -20.7°
Maximum altitude 20:35:57 66° 43° (NE) 1,282 4.1 -21.4°
Enters shadow 20:39:41 32° 115° (ESE) 1,933 4.6 -21.8°
